QPF
0.01 0.02 0.02 0.01 0.00 0.00 0.00 0.00 0.00 0.00 0.00 0.00 0.00 0.00 0.00 0.00 0.00 0.00 0.00 0.00 0.00 0.00 0.00 0.00 0.00 0.00 0.00 0.00 0.00 0.00 0.00 0.00 0.00 0.00 0.00 0.00 0.00 0.00 0.00 0.00 0.00 0.01 0.01 0.01
0.03 0.02 0.01 0.01 0.00 0.00 0.00 0.00 0.00 0.00 0.00 0.00 0.00 0.00 0.00 0.00 0.00 0.00 0.00 0.00 0.00 0.00 0.00 0.00 0.00 0.00 0.00 0.00 0.00 0.00 0.00 0.00 0.00 0.00 0.01 0.01 0.01 0.01 0.00 0.00 0.00 0.01 0.01 0.01
0.02 0.01 0.00 0.01 0.01 0.01 0.01 0.00 0.00 0.00 0.00 0.00 0.00 0.00 0.00 0.00 0.00 0.00 0.00 0.00 0.00 0.00 0.00 0.00 0.00 0.00 0.00 0.00 0.00 0.00 0.00 0.00 0.00 0.00 0.01 0.01 0.01 0.00 0.00 0.00 0.00 0.00 0.00 0.00
0.02 0.00 0.01 0.01 0.01 0.01 0.01 0.00 0.00 0.00 0.00 0.00 0.00 0.00 0.00 0.00 0.00 0.00 0.00 0.00 0.00 0.00 0.00 0.00 0.00 0.00 0.00 0.00 0.00 0.00 0.00 0.00 0.00 0.01 0.00 0.00 0.00 0.00 0.00 0.00 0.00 0.00 0.00 0.01
0.04 0.01 0.01 0.01 0.01 0.01 0.01 0.01 0.00 0.01 0.01 0.01 0.00 0.00 0.00 0.00 0.00 0.00 0.00 0.00 0.00 0.00 0.00 0.00 0.00 0.00 0.00 0.00 0.00 0.00 0.01 0.01 0.01 0.01 0.00 0.00 0.00 0.00 0.00 0.00 0.00 0.00 0.01 0.01
0.03 0.01 0.01 0.00 0.00 0.01 0.02 0.01 0.02 0.02 0.02 0.02 0.00 0.00 0.00 0.00 0.00 0.00 0.00 0.00 0.00 0.00 0.00 0.00 0.00 0.00 0.00 0.00 0.00 0.00 0.01 0.01 0.00 0.00 0.00 0.00 0.00 0.00 0.00 0.00 0.00 0.00 0.00 0.00
0.04 0.03 0.01 0.01 0.01 0.01 0.03 0.04 0.06 0.06 0.05 0.02 0.00 0.00 0.00 0.00 0.00 0.00 0.00 0.00 0.00 0.00 0.00 0.00 0.00 0.00 0.00 0.00 0.00 0.00 0.00 0.00 0.00 0.00 0.00 0.00 0.00 0.00 0.00 0.00 0.00 0.00 0.00 0.00
0.04 0.04 0.02 0.01 0.01 0.02 0.03 0.04 0.04 0.03 0.02 0.00 0.00 0.00 0.00 0.00 0.00 0.00 0.00 0.00 0.00 0.00 0.00 0.00 0.00 0.00 0.00 0.00 0.00 0.00 0.00 0.00 0.00 0.00 0.00 0.00 0.00 0.00 0.00 0.00 0.00 0.00 0.00 0.01
0.03 0.02 0.01 0.01 0.01 0.01 0.02 0.03 0.02 0.02 0.01 0.00 0.00 0.00 0.00 0.00 0.00 0.00 0.00 0.00 0.00 0.00 0.00 0.00 0.00 0.00 0.00 0.00 0.00 0.00 0.00 0.00 0.00 0.00 0.00 0.00 0.00 0.00 0.00 0.00 0.00 0.00 0.00 0.01
0.04 0.03 0.01 0.01 0.02 0.02 0.02 0.02 0.03 0.04 0.02 0.01 0.00 0.00 0.00 0.00 0.00 0.00 0.00 0.00 0.00 0.00 0.00 0.00 0.00 0.00 0.00 0.00 0.00 0.00 0.00 0.00 0.00 0.00 0.00 0.00 0.00 0.00 0.00 0.00 0.00 0.00 0.00 0.00
0.03 0.04 0.02 0.02 0.03 0.04 0.03 0.04 0.05 0.04 0.03 0.01 0.00 0.00 0.00 0.00 0.00 0.00 0.00 0.00 0.00 0.00 0.00 0.00 0.00 0.00 0.00 0.00 0.00 0.00 0.00 0.00 0.00 0.00 0.00 0.00 0.00 0.00 0.00 0.01 0.01 0.00 0.00 0.00
0.03 0.04 0.03 0.02 0.01 0.02 0.04 0.04 0.04 0.04 0.03 0.01 0.01 0.00 0.00 0.00 0.00 0.00 0.00 0.00 0.00 0.00 0.00 0.00 0.00 0.00 0.00 0.00 0.00 0.00 0.00 0.00 0.00 0.00 0.00 0.00 0.00 0.00 0.01 0.01 0.01 0.01 0.01 0.00
0.07 0.06 0.05 0.04 0.03 0.02 0.04 0.05 0.04 0.03 0.02 0.01 0.01 0.00 0.00 0.00 0.00 0.00 0.00 0.00 0.00 0.00 0.00 0.00 0.00 0.00 0.00 0.00 0.00 0.00 0.00 0.00 0.00 0.00 0.00 0.00 0.00 0.00 0.01 0.01 0.01 0.01 0.01 0.01
0.06 0.07 0.05 0.05 0.05 0.04 0.03 0.03 0.03 0.04 0.03 0.01 0.01 0.00 0.00 0.00 0.00 0.00 0.00 0.00 0.00 0.00 0.00 0.00 0.00 0.00 0.00 0.00 0.00 0.00 0.00 0.00 0.00 0.00 0.00 0.00 0.00 0.00 0.00 0.01 0.01 0.01 0.01 0.01
0.03 0.04 0.03 0.03 0.03 0.02 0.02 0.02 0.02 0.03 0.02 0.01 0.01 0.01 0.00 0.00 0.00 0.00 0.00 0.00 0.00 0.00 0.00 0.00 0.00 0.00 0.00 0.00 0.00 0.00 0.00 0.00 0.00 0.00 0.00 0.00 0.00 0.00 0.00 0.00 0.01 0.01 0.02 0.01
0.02 0.03 0.02 0.01 0.02 0.02 0.02 0.01 0.02 0.02 0.03 0.02 0.01 0.01 0.01 0.01 0.01 0.01 0.01 0.00 0.00 0.00 0.00 0.00 0.00 0.00 0.00 0.00 0.00 0.00 0.00 0.00 0.00 0.00 0.00 0.00 0.00 0.00 0.00 0.00 0.00 0.01 0.01 0.02
0.02 0.02 0.02 0.01 0.01 0.02 0.03 0.02 0.02 0.03 0.03 0.03 0.02 0.02 0.01 0.01 0.01 0.01 0.00 0.00 0.00 0.00 0.00 0.00 0.00 0.00 0.00 0.00 0.00 0.00 0.00 0.00 0.00 0.00 0.00 0.00 0.00 0.00 0.00 0.00 0.00 0.00 0.01 0.01
0.02 0.02 0.03 0.02 0.02 0.03 0.04 0.03 0.02 0.02 0.03 0.03 0.02 0.02 0.02 0.01 0.01 0.01 0.00 0.00 0.00 0.00 0.00 0.00 0.00 0.00 0.00 0.00 0.00 0.00 0.00 0.00 0.00 0.00 0.00 0.00 0.00 0.00 0.00 0.00 0.00 0.00 0.01 0.01
0.02 0.02 0.03 0.03 0.02 0.02 0.03 0.02 0.03 0.03 0.03 0.03 0.03 0.02 0.02 0.01 0.01 0.01 0.01 0.01 0.00 0.00 0.00 0.00 0.00 0.00 0.00 0.00 0.00 0.00 0.00 0.00 0.00 0.00 0.00 0.00 0.00 0.00 0.00 0.00 0.00 0.00 0.00 0.01
0.02 0.03 0.03 0.03 0.03 0.02 0.02 0.02 0.02 0.03 0.03 0.03 0.03 0.02 0.02 0.01 0.02 0.02 0.01 0.01 0.00 0.00 0.00 0.00 0.00 0.00 0.00 0.00 0.00 0.00 0.00 0.00 0.00 0.00 0.00 0.00 0.00 0.00 0.00 0.00 0.00 0.00 0.00 0.00
0.03 0.04 0.03 0.02 0.03 0.03 0.02 0.01 0.02 0.03 0.03 0.02 0.02 0.02 0.02 0.02 0.02 0.01 0.01 0.01 0.01 0.01 0.00 0.00 0.00 0.00 0.00 0.00 0.00 0.00 0.00 0.00 0.00 0.00 0.00 0.00 0.00 0.00 0.00 0.00 0.00 0.00 0.00 0.00
0.03 0.03 0.03 0.03 0.04 0.04 0.02 0.02 0.03 0.03 0.02 0.01 0.01 0.02 0.02 0.01 0.01 0.01 0.01 0.01 0.01 0.01 0.01 0.00 0.00 0.00 0.00 0.00 0.00 0.00 0.00 0.00 0.00 0.00 0.00 0.00 0.00 0.00 0.00 0.00 0.00 0.00 0.00 0.00
0.03 0.04 0.04 0.05 0.05 0.05 0.04 0.04 0.03 0.03 0.02 0.01 0.01 0.02 0.02 0.02 0.01 0.01 0.01 0.00 0.00 0.00 0.00 0.00 0.00 0.00 0.00 0.00 0.00 0.00 0.00 0.00 0.00 0.00 0.00 0.00 0.00 0.00 0.00 0.00 0.00 0.00 0.00 0.00
0.02 0.02 0.03 0.04 0.04 0.04 0.04 0.03 0.02 0.02 0.02 0.02 0.02 0.02 0.02 0.02 0.02 0.02 0.01 0.01 0.01 0.00 0.00 0.00 0.00 0.00 0.00 0.00 0.00 0.00 0.00 0.00 0.00 0.00 0.00 0.00 0.00 0.00 0.00 0.00 0.00 0.00 0.00 0.00
0.02 0.02 0.02 0.02 0.03 0.03 0.03 0.03 0.02 0.02 0.02 0.02 0.02 0.02 0.02 0.02 0.02 0.03 0.02 0.02 0.01 0.01 0.01 0.00 0.00 0.00 0.00 0.00 0.00 0.00 0.00 0.00 0.00 0.00 0.00 0.00 0.00 0.00 0.00 0.00 0.00 0.00 0.00 0.00
0.02 0.02 0.02 0.02 0.02 0.03 0.03 0.03 0.03 0.02 0.02 0.02 0.02 0.02 0.02 0.02 0.02 0.02 0.03 0.03 0.03 0.02 0.02 0.01 0.01 0.00 0.00 0.00 0.00 0.00 0.00 0.00 0.00 0.00 0.00 0.00 0.00 0.00 0.00 0.00 0.00 0.00 0.00 0.00
MSLP
1014.29 1014.68 1015.00 1015.27 1015.50 1015.74 1016.00 1016.30 1016.66 1017.05 1017.47 1017.90 1018.32 1018.74 1019.13 1019.52 1019.90 1020.29 1020.68 1021.08 1021.48 1021.87 1022.24 1022.58 1022.88 1023.14 1023.37 1023.56 1023.72 1023.86 1023.96 1024.03 1024.06 1024.03 1023.95 1023.80 1023.60 1023.35 1023.05 1022.74 1022.42 1022.09 1021.78 1021.47
1014.18 1014.48 1014.74 1014.98 1015.25 1015.57 1015.94 1016.38 1016.87 1017.37 1017.86 1018.29 1018.67 1018.99 1019.26 1019.51 1019.78 1020.09 1020.45 1020.87 1021.32 1021.79 1022.25 1022.66 1023.02 1023.31 1023.54 1023.72 1023.85 1023.96 1024.06 1024.13 1024.18 1024.20 1024.16 1024.05 1023.88 1023.64 1023.34 1023.01 1022.65 1022.28 1021.92 1021.57
1014.02 1014.24 1014.45 1014.69 1015.01 1015.41 1015.91 1016.48 1017.08 1017.66 1018.16 1018.56 1018.84 1019.02 1019.13 1019.23 1019.37 1019.59 1019.92 1020.36 1020.89 1021.46 1022.03 1022.55 1023.00 1023.35 1023.61 1023.79 1023.93 1024.03 1024.13 1024.22 1024.30 1024.36 1024.36 1024.30 1024.15 1023.93 1023.62 1023.27 1022.87 1022.47 1022.06 1021.66
1013.87 1014.03 1014.22 1014.48 1014.84 1015.34 1015.94 1016.62 1017.29 1017.89 1018.37 1018.67 1018.81 1018.81 1018.73 1018.65 1018.65 1018.79 1019.10 1019.58 1020.20 1020.90 1021.61 1022.27 1022.83 1023.27 1023.59 1023.81 1023.96 1024.08 1024.19 1024.31 1024.42 1024.50 1024.54 1024.51 1024.38 1024.17 1023.86 1023.48 1023.06 1022.61 1022.16 1021.72
1013.78 1013.92 1014.10 1014.38 1014.81 1015.38 1016.06 1016.79 1017.49 1018.06 1018.45 1018.62 1018.57 1018.37 1018.09 1017.83 1017.71 1017.78 1018.09 1018.63 1019.35 1020.19 1021.06 1021.87 1022.57 1023.12 1023.52 1023.80 1023.99 1024.14 1024.27 1024.40 1024.53 1024.63 1024.69 1024.67 1024.55 1024.33 1024.01 1023.62 1023.17 1022.70 1022.22 1021.74
1013.76 1013.89 1014.09 1014.41 1014.89 1015.52 1016.25 1016.99 1017.66 1018.16 1018.42 1018.41 1018.17 1017.76 1017.28 1016.88 1016.65 1016.68 1017.01 1017.62 1018.47 1019.46 1020.48 1021.45 1022.29 1022.96 1023.46 1023.80 1024.04 1024.21 1024.36 1024.50 1024.63 1024.74 1024.79 1024.77 1024.65 1024.42 1024.09 1023.68 1023.22 1022.74 1022.24 1021.74
1013.76 1013.91 1014.15 1014.52 1015.05 1015.72 1016.46 1017.18 1017.78 1018.16 1018.26 1018.08 1017.65 1017.05 1016.42 1015.90 1015.61 1015.63 1016.01 1016.71 1017.68 1018.81 1019.99 1021.10 1022.07 1022.84 1023.42 1023.83 1024.11 1024.31 1024.46 1024.60 1024.73 1024.82 1024.86 1024.82 1024.68 1024.43 1024.09 1023.68 1023.22 1022.73 1022.24 1021.74
1013.73 1013.93 1014.22 1014.65 1015.22 1015.90 1016.63 1017.30 1017.80 1018.06 1018.01 1017.66 1017.07 1016.34 1015.61 1015.04 1014.73 1014.79 1015.23 1016.03 1017.11 1018.37 1019.66 1020.88 1021.94 1022.79 1023.43 1023.89 1024.19 1024.41 1024.57 1024.70 1024.81 1024.88 1024.90 1024.83 1024.67 1024.41 1024.06 1023.65 1023.19 1022.72 1022.25 1021.77
1013.61 1013.87 1014.23 1014.73 1015.34 1016.03 1016.73 1017.33 1017.74 1017.86 1017.68 1017.21 1016.51 1015.71 1014.95 1014.38 1014.11 1014.24 1014.76 1015.66 1016.83 1018.17 1019.53 1020.81 1021.92 1022.81 1023.48 1023.95 1024.28 1024.50 1024.66 1024.78 1024.88 1024.93 1024.91 1024.82 1024.64 1024.36 1024.01 1023.61 1023.17 1022.73 1022.28 1021.84
1013.37 1013.71 1014.16 1014.72 1015.38 1016.07 1016.74 1017.27 1017.57 1017.59 1017.31 1016.75 1016.01 1015.20 1014.47 1013.96 1013.79 1014.01 1014.63 1015.60 1016.84 1018.21 1019.59 1020.88 1021.98 1022.87 1023.53 1024.01 1024.33 1024.56 1024.72 1024.84 1024.92 1024.96 1024.93 1024.81 1024.61 1024.33 1023.98 1023.58 1023.17 1022.76 1022.35 1021.94
1013.02 1013.46 1014.00 1014.63 1015.33 1016.04 1016.66 1017.12 1017.34 1017.27 1016.91 1016.32 1015.58 1014.82 1014.17 1013.77 1013.72 1014.05 1014.76 1015.80 1017.06 1018.43 1019.78 1021.02 1022.08 1022.93 1023.56 1024.02 1024.34 1024.58 1024.74 1024.87 1024.96 1024.99 1024.95 1024.82 1024.61 1024.32 1023.97 1023.59 1023.19 1022.81 1022.43 1022.05
1012.63 1013.17 1013.81 1014.51 1015.25 1015.95 1016.53 1016.92 1017.05 1016.90 1016.50 1015.90 1015.19 1014.51 1013.98 1013.72 1013.80 1014.25 1015.04 1016.12 1017.37 1018.71 1020.00 1021.17 1022.15 1022.94 1023.54 1023.98 1024.31 1024.55 1024.74 1024.89 1024.99 1025.03 1024.99 1024.86 1024.64 1024.34 1023.99 1023.61 1023.23 1022.86 1022.50 1022.14
1012.26 1012.90 1013.64 1014.42 1015.18 1015.86 1016.39 1016.69 1016.73 1016.50 1016.05 1015.45 1014.80 1014.21 1013.81 1013.68 1013.90 1014.45 1015.31 1016.42 1017.66 1018.94 1020.16 1021.25 1022.16 1022.89 1023.46 1023.90 1024.23 1024.51 1024.73 1024.91 1025.03 1025.09 1025.05 1024.91 1024.68 1024.38 1024.02 1023.63 1023.25 1022.89 1022.54 1022.20
1012.00 1012.74 1013.54 1014.37 1015.14 1015.78 1016.23 1016.43 1016.36 1016.05 1015.55 1014.94 1014.33 1013.83 1013.54 1013.55 1013.88 1014.54 1015.46 1016.58 1017.80 1019.03 1020.19 1021.21 1022.07 1022.77 1023.33 1023.78 1024.15 1024.47 1024.74 1024.95 1025.10 1025.17 1025.13 1024.98 1024.74 1024.42 1024.04 1023.64 1023.25 1022.88 1022.54 1022.20
1011.87 1012.68 1013.54 1014.38 1015.12 1015.69 1016.03 1016.11 1015.92 1015.51 1014.94 1014.31 1013.73 1013.31 1013.12 1013.24 1013.68 1014.42 1015.40 1016.54 1017.75 1018.96 1020.08 1021.07 1021.91 1022.61 1023.19 1023.68 1024.10 1024.46 1024.78 1025.03 1025.20 1025.27 1025.22 1025.06 1024.79 1024.44 1024.04 1023.63 1023.23 1022.86 1022.51 1022.17
1011.88 1012.71 1013.58 1014.38 1015.06 1015.53 1015.74 1015.68 1015.36 1014.83 1014.20 1013.54 1012.98 1012.62 1012.51 1012.73 1013.26 1014.08 1015.11 1016.29 1017.52 1018.73 1019.85 1020.84 1021.71 1022.44 1023.07 1023.62 1024.10 1024.52 1024.87 1025.14 1025.32 1025.38 1025.30 1025.11 1024.81 1024.44 1024.02 1023.59 1023.19 1022.81 1022.47 1022.14
1011.96 1012.76 1013.58 1014.31 1014.88 1015.22 1015.28 1015.08 1014.62 1014.00 1013.30 1012.64 1012.10 1011.79 1011.76 1012.07 1012.69 1013.58 1014.68 1015.90 1017.16 1018.40 1019.56 1020.60 1021.52 1022.32 1023.02 1023.64 1024.18 1024.64 1025.02 1025.30 1025.45 1025.48 1025.37 1025.14 1024.80 1024.40 1023.97 1023.54 1023.14 1022.78 1022.45 1022.14
1012.01 1012.72 1013.43 1014.04 1014.47 1014.67 1014.59 1014.26 1013.70 1013.01 1012.29 1011.63 1011.14 1010.90 1010.96 1011.36 1012.06 1013.03 1014.20 1015.47 1016.79 1018.09 1019.31 1020.42 1021.42 1022.30 1023.08 1023.76 1024.35 1024.84 1025.21 1025.46 1025.58 1025.56 1025.40 1025.12 1024.75 1024.33 1023.90 1023.49 1023.11 1022.78 1022.49 1022.21
1011.94 1012.51 1013.07 1013.53 1013.80 1013.85 1013.65 1013.22 1012.61 1011.91 1011.21 1010.61 1010.20 1010.06 1010.23 1010.73 1011.53 1012.58 1013.81 1015.15 1016.53 1017.88 1019.17 1020.36 1021.43 1022.40 1023.24 1023.98 1024.59 1025.08 1025.43 1025.64 1025.70 1025.61 1025.38 1025.06 1024.67 1024.25 1023.83 1023.45 1023.12 1022.84 1022.59 1022.35
1011.70 1012.09 1012.46 1012.74 1012.86 1012.78 1012.49 1012.02 1011.42 1010.77 1010.16 1009.67 1009.40 1009.40 1009.70 1010.31 1011.20 1012.33 1013.62 1015.02 1016.45 1017.86 1019.21 1020.46 1021.61 1022.62 1023.52 1024.28 1024.90 1025.36 1025.67 1025.81 1025.79 1025.63 1025.35 1024.98 1024.57 1024.16 1023.78 1023.45 1023.18 1022.95 1022.76 1022.57
1011.30 1011.48 1011.65 1011.75 1011.73 1011.55 1011.23 1010.77 1010.24 1009.70 1009.24 1008.93 1008.83 1009.00 1009.45 1010.18 1011.18 1012.37 1013.72 1015.15 1016.61 1018.06 1019.44 1020.74 1021.92 1022.97 1023.88 1024.64 1025.24 1025.66 1025.90 1025.97 1025.87 1025.64 1025.30 1024.91 1024.49 1024.10 1023.76 1023.48 1023.28 1023.12 1022.98 1022.83
1010.79 1010.76 1010.75 1010.69 1010.55 1010.32 1009.99 1009.60 1009.20 1008.83 1008.56 1008.46 1008.57 1008.92 1009.53 1010.38 1011.46 1012.71 1014.09 1015.54 1017.01 1018.46 1019.85 1021.16 1022.35 1023.40 1024.31 1025.05 1025.60 1025.97 1026.14 1026.13 1025.96 1025.66 1025.29 1024.87 1024.45 1024.09 1023.79 1023.57 1023.42 1023.32 1023.23 1023.11
1010.28 1010.07 1009.89 1009.70 1009.48 1009.22 1008.94 1008.66 1008.41 1008.23 1008.19 1008.31 1008.63 1009.17 1009.92 1010.89 1012.03 1013.32 1014.70 1016.14 1017.59 1019.02 1020.40 1021.68 1022.85 1023.89 1024.76 1025.46 1025.96 1026.27 1026.37 1026.30 1026.07 1025.73 1025.32 1024.89 1024.49 1024.15 1023.89 1023.72 1023.62 1023.55 1023.49 1023.38
1009.89 1009.54 1009.23 1008.95 1008.68 1008.43 1008.22 1008.05 1007.96 1007.99 1008.15 1008.48 1009.00 1009.70 1010.58 1011.63 1012.82 1014.12 1015.48 1016.89 1018.30 1019.68 1021.01 1022.26 1023.39 1024.38 1025.21 1025.86 1026.31 1026.56 1026.61 1026.48 1026.21 1025.84 1025.42 1024.99 1024.61 1024.29 1024.06 1023.92 1023.84 1023.79 1023.73 1023.62
1009.71 1009.28 1008.89 1008.56 1008.27 1008.05 1007.90 1007.85 1007.91 1008.10 1008.45 1008.95 1009.62 1010.45 1011.42 1012.53 1013.74 1015.02 1016.35 1017.71 1019.06 1020.38 1021.65 1022.84 1023.92 1024.86 1025.64 1026.24 1026.64 1026.85 1026.85 1026.69 1026.40 1026.02 1025.60 1025.18 1024.82 1024.52 1024.31 1024.18 1024.10 1024.04 1023.97 1023.83
1009.81 1009.35 1008.93 1008.58 1008.30 1008.10 1008.02 1008.05 1008.23 1008.55 1009.03 1009.66 1010.44 1011.35 1012.38 1013.51 1014.71 1015.97 1017.25 1018.55 1019.83 1021.09 1022.29 1023.41 1024.43 1025.31 1026.04 1026.58 1026.94 1027.11 1027.09 1026.91 1026.62 1026.24 1025.84 1025.44 1025.10 1024.82 1024.62 1024.48 1024.39 1024.31 1024.20 1024.03
Thickness
5514 5513 5522 5533 5540 5546 5545 5548 5554 5563 5571 5572 5575 5585 5596 5601 5602 5605 5608 5613 5619 5626 5631 5631 5631 5631 5630 5630 5629 5629 5627 5626 5625 5623 5620 5618 5617 5617 5616 5616 5615 5615 5614 5613
5497 5504 5520 5525 5529 5533 5535 5537 5543 5552 5560 5563 5564 5572 5584 5592 5597 5602 5606 5610 5615 5619 5621 5624 5625 5625 5626 5626 5625 5623 5623 5621 5620 5619 5616 5614 5611 5609 5609 5608 5608 5607 5606 5606
5491 5504 5513 5516 5517 5520 5524 5527 5534 5539 5545 5549 5553 5564 5577 5587 5591 5598 5602 5608 5612 5616 5618 5619 5620 5621 5621 5621 5621 5621 5618 5616 5615 5612 5609 5606 5603 5601 5600 5600 5600 5600 5599 5598
5481 5494 5502 5504 5507 5511 5514 5524 5527 5530 5527 5525 5538 5538 5566 5577 5583 5591 5596 5599 5605 5610 5612 5614 5615 5615 5616 5617 5616 5614 5612 5610 5608 5606 5604 5602 5599 5596 5595 5593 5592 5592 5591 5591
5473 5483 5490 5494 5502 5506 5508 5515 5516 5517 5513 5510 5520 5522 5553 5565 5576 5588 5592 5594 5599 5602 5605 5608 5611 5612 5611 5610 5609 5608 5605 5603 5601 5600 5598 5596 5593 5590 5587 5586 5585 5584 5583 5583
5464 5474 5481 5489 5496 5499 5498 5499 5497 5492 5493 5496 5512 5513 5539 5554 5576 5585 5589 5589 5592 5595 5597 5601 5603 5603 5603 5601 5600 5599 5598 5596 5595 5593 5591 5590 5587 5583 5580 5578 5577 5576 5575 5574
5453 5462 5472 5480 5481 5485 5488 5483 5477 5477 5473 5487 5506 5510 5535 5559 5569 5575 5579 5581 5583 5586 5588 5592 5594 5595 5595 5594 5593 5592 5591 5589 5587 5586 5584 5583 5580 5577 5575 5573 5571 5568 5567 5566
5438 5447 5460 5471 5475 5475 5476 5480 5475 5472 5476 5484 5494 5502 5531 5550 5557 5562 5567 5570 5573 5576 5579 5583 5587 5588 5588 5587 5586 5585 5584 5582 5580 5578 5577 5575 5572 5570 5568 5566 5564 5562 5560 5559
5426 5438 5451 5461 5469 5473 5470 5471 5478 5470 5467 5472 5485 5497 5520 5542 5546 5551 5554 5558 5562 5565 5570 5574 5577 5579 5579 5579 5579 5579 5577 5575 5573 5571 5569 5566 5564 5562 5560 5558 5556 5554 5552 5551
5418 5422 5435 5449 5460 5462 5467 5467 5464 5464 5467 5477 5486 5495 5515 5532 5537 5540 5543 5546 5550 5554 5559 5562 5565 5567 5569 5570 5570 5569 5569 5567 5565 5563 5561 5559 5556 5554 5552 5549 5547 5545 5544 5542
5409 5409 5419 5433 5440 5445 5450 5456 5461 5461 5465 5470 5477 5498 5515 5520 5525 5527 5530 5533 5537 5542 5546 5550 5553 5555 5558 5558 5559 5559 5558 5557 5555 5553 5552 5550 5547 5545 5543 5540 5538 5536 5534 5532
5399 5397 5399 5413 5423 5431 5439 5447 5451 5456 5453 5452 5462 5484 5504 5505 5509 5514 5516 5521 5525 5529 5533 5536 5540 5543 5545 5547 5548 5548 5548 5547 5546 5544 5542 5540 5537 5535 5533 5530 5528 5526 5524 5522
5393 5388 5391 5405 5412 5417 5421 5429 5437 5442 5440 5440 5457 5481 5492 5491 5496 5501 5504 5507 5512 5516 5520 5523 5527 5530 5533 5535 5537 5537 5537 5536 5535 5534 5532 5529 5527 5525 5523 5520 5518 5516 5514 5512
5391 5381 5386 5395 5402 5402 5406 5417 5424 5434 5433 5435 5449 5467 5480 5483 5485 5487 5491 5495 5498 5503 5508 5511 5514 5517 5520 5523 5525 5526 5525 5525 5525 5523 5521 5519 5517 5515 5513 5510 5508 5506 5503 5501
5377 5372 5377 5387 5396 5398 5404 5410 5417 5425 5432 5437 5450 5457 5469 5471 5473 5474 5478 5483 5489 5493 5497 5500 5502 5505 5508 5511 5512 5514 5514 5514 5514 5512 5510 5508 5506 5504 5503 5500 5497 5495 5493 5491
5360 5363 5371 5380 5393 5397 5400 5407 5412 5420 5425 5430 5440 5449 5457 5456 5459 5461 5465 5471 5477 5481 5486 5489 5492 5495 5498 5500 5501 5502 5502 5503 5502 5501 5499 5497 5496 5494 5492 5489 5487 5485 5483 5481
5350 5355 5362 5369 5383 5391 5392 5399 5403 5409 5414 5423 5433 5444 5444 5447 5451 5453 5456 5461 5465 5470 5475 5478 5481 5484 5487 5489 5491 5491 5492 5492 5492 5490 5489 5487 5486 5484 5481 5480 5477 5475 5473 5470
5347 5348 5350 5358 5370 5375 5392 5394 5397 5402 5408 5413 5423 5431 5436 5441 5441 5443 5447 5451 5454 5459 5464 5468 5471 5474 5476 5478 5480 5481 5481 5481 5481 5479 5478 5477 5475 5473 5471 5469 5467 5465 5463 5461
5346 5345 5344 5348 5357 5372 5385 5385 5384 5390 5400 5403 5410 5419 5422 5426 5432 5434 5438 5442 5445 5448 5453 5457 5461 5464 5466 5467 5469 5470 5470 5470 5469 5468 5467 5466 5465 5463 5461 5459 5457 5456 5454 5452
5339 5337 5337 5340 5351 5364 5373 5377 5381 5388 5394 5397 5400 5406 5409 5418 5424 5429 5429 5432 5434 5438 5442 5446 5449 5452 5454 5455 5457 5459 5458 5458 5457 5457 5457 5456 5455 5454 5452 5450 5448 5446 5444 5443
5328 5326 5327 5333 5342 5354 5359 5366 5377 5381 5386 5388 5391 5397 5402 5407 5415 5416 5417 5421 5424 5427 5430 5434 5437 5439 5441 5443 5446 5446 5447 5446 5446 5447 5446 5445 5444 5443 5442 5440 5438 5437 5435 5433
5318 5318 5319 5323 5334 5345 5351 5357 5361 5365 5371 5377 5383 5389 5393 5396 5400 5404 5406 5410 5413 5415 5418 5422 5424 5426 5427 5430 5434 5435 5434 5434 5435 5435 5434 5433 5432 5432 5431 5429 5428 5427 5425 5424
5312 5314 5317 5323 5332 5337 5339 5343 5349 5354 5360 5368 5373 5379 5383 5386 5389 5393 5394 5398 5401 5404 5407 5410 5412 5413 5415 5417 5420 5421 5422 5423 5424 5423 5422 5421 5421 5420 5419 5419 5417 5416 5415 5414
5305 5309 5312 5317 5326 5330 5333 5336 5341 5347 5352 5359 5364 5368 5373 5376 5379 5381 5383 5386 5390 5392 5395 5398 5400 5402 5402 5404 5407 5409 5411 5412 5413 5412 5411 5410 5410 5409 5408 5408 5408 5406 5405 5404
5299 5301 5305 5311 5319 5325 5330 5330 5333 5339 5345 5350 5354 5358 5361 5365 5367 5370 5372 5375 5378 5381 5384 5387 5389 5390 5391 5393 5395 5397 5399 5401 5401 5400 5400 5399 5400 5398 5397 5397 5396 5396 5396 5395
5292 5294 5298 5307 5313 5314 5319 5322 5326 5331 5336 5340 5344 5347 5350 5354 5357 5360 5362 5364 5366 5369 5372 5375 5377 5378 5379 5382 5384 5386 5388 5390 5390 5390 5389 5389 5388 5388 5387 5386 5386 5386 5386 5386